Terminal Aerodrome Forecast
Issued by NWS

Home | Current Version | Previous Version | Text Only | Print | Product List | Glossary On
Versions: 1 2 3 4 5 6 7 8 9 10 11 12 13 14
502
FTAK31 PAJN 212320
TAFAWG
TAF
PAWG 212320Z 2200/2224 12008KT 5SM RA BR SCT006 OVC020
      WS020/16040KT
     FM220600 12010KT 4SM RA BR BKN007 OVC015 WS020/17035KT
     FM221200 11006KT 4SM -RA BR OVC015
      AMD LTD TO CLD VIS AND WIND 2206/2215=

USA.gov is the U.S. government's official web portal to all federal, state and local government web resources and services.